[ ตารางข้อมูล ] [ Min-Max ] [ วันนี้4 ] [ วันนี้2 ] [ เทียบ3วัน A ] [ เทียบ4วัน B ]   

วันนี้2   [ ◀ ช่วงเก่ากว่า ] [ ช่วงที่ 228 ] [ ช่วงใหม่กว่า ▶ ] [ ล่าสุด ]    [ 3 ชั่วโมง ] [ 6 ชั่วโมง ] [ 12 ชั่วโมง ] [ 24 ชั่วโมง ]   วันนี้2

อุณภูมิตู้ Knockdown4529  ราย 3 ชั่วโมง  ที่วัดได้ ในช่วงวันเวลา 07/04/2026 (19:32) ถึง 07/04/2026 (22:32) 
ความชื้นในตู้ Knockdown4529  ราย 3 ชั่วโมง  ที่วัดได้ ในช่วงวันเวลา 07/04/2026 (19:32) ถึง 07/04/2026 (22:32) 

 
DS18B20SHTC3 
IDDate d/m/Y & Timedata1
สูง
data2
ต่ำ
data3
นอก
temp
pcb
hum
pcb
Time
 9763  07/04/2026 22:29:15  30.8  30.9  29.2  31.0  70.1  22:29 
 9762  07/04/2026 22:24:30  30.8  30.9  29.1  30.7  70.0  22:24 
 9761  07/04/2026 22:19:49  30.8  30.9  29.0  30.8  70.0  22:19 
 9760  07/04/2026 22:15:07  30.8  30.9  29.0  30.8  69.9  22:15 
 9759  07/04/2026 22:10:25  30.9  31.0  28.9  30.9  69.9  22:10 
 9758  07/04/2026 22:05:43  30.9  31.0  29.0  30.8  69.8  22:05 
 9757  07/04/2026 22:01:00  30.9  31.0  29.1  31.0  69.9  22:01 
 9756  07/04/2026 21:56:18  30.9  31.1  29.3  31.0  70.0  21:56 
 9755  07/04/2026 21:51:36  30.9  31.1  29.5  31.0  69.8  21:51 
 9754  07/04/2026 21:46:54  30.9  31.1  29.5  31.1  69.7  21:46 
 9753  07/04/2026 21:42:12  31.0  31.1  29.4  31.0  69.8  21:42 
 9752  07/04/2026 21:37:31  31.0  31.1  29.5  30.9  69.8  21:37 
 9751  07/04/2026 21:32:47  31.0  31.1  29.8  31.0  69.9  21:32 
 9750  07/04/2026 21:28:05  31.1  31.2  29.9  31.1  69.8  21:28 
 9749  07/04/2026 21:23:23  31.1  31.2  29.9  30.8  69.8  21:23 
 9748  07/04/2026 21:18:41  31.1  31.2  29.9  31.1  69.8  21:18 
 9747  07/04/2026 21:13:59  31.1  31.2  29.9  31.3  69.8  21:13 
 9746  07/04/2026 21:09:17  31.2  31.2  29.9  31.2  69.7  21:09 
 9745  07/04/2026 21:04:34  31.2  31.3  29.9  31.2  69.7  21:04 
 9744  07/04/2026 20:59:53  31.2  31.3  29.8  31.2  69.7  20:59 
 9743  07/04/2026 20:55:10  31.2  31.4  30.0  31.3  69.7  20:55 
 9742  07/04/2026 20:50:28  31.2  31.4  30.0  31.4  69.6  20:50 
 9741  07/04/2026 20:45:46  31.3  31.4  30.0  31.4  69.6  20:45 
 9740  07/04/2026 20:41:05  31.3  31.4  29.9  31.4  69.4  20:41 

Data every 5 minute.


ใช้เวลาประมวลผล 0.00340 วินาที